TimeCST,TemperatureF,Dew PointF,Humidity,Sea Level PressureIn,VisibilityMPH,Wind Direction,Wind SpeedMPH,Gust SpeedMPH,PrecipitationIn,Events,Conditions,WindDirDegrees,DateUTC
12:53 AM,42.1,33.1,70,29.92,10.0,WNW,6.9,-,N/A,,Clear,290,2014-01-14 06:53:00
1:53 AM,39.9,32.0,73,29.94,10.0,West,6.9,-,N/A,,Clear,270,2014-01-14 07:53:00
2:53 AM,36.0,30.9,82,29.94,10.0,West,4.6,-,N/A,,Clear,260,2014-01-14 08:53:00
3:53 AM,32.0,30.0,92,29.94,10.0,SSW,4.6,-,N/A,,Clear,200,2014-01-14 09:53:00
4:53 AM,30.9,28.9,92,29.95,10.0,South,4.6,-,N/A,,Clear,180,2014-01-14 10:53:00
5:53 AM,32.0,28.9,88,29.95,10.0,SSW,6.9,-,N/A,,Clear,200,2014-01-14 11:53:00
6:53 AM,34.0,28.9,82,29.96,10.0,SSW,5.8,-,N/A,,Clear,200,2014-01-14 12:53:00
7:53 AM,35.1,30.0,82,29.96,10.0,SSW,5.8,-,N/A,,Clear,200,2014-01-14 13:53:00
8:53 AM,42.1,34.0,73,29.98,10.0,SSW,6.9,-,N/A,,Clear,200,2014-01-14 14:53:00
9:53 AM,48.9,36.0,61,29.96,10.0,South,8.1,-,N/A,,Clear,190,2014-01-14 15:53:00
10:53 AM,53.1,36.0,52,29.96,10.0,SW,12.7,-,N/A,,Clear,220,2014-01-14 16:53:00
11:53 AM,55.9,35.1,45,29.91,10.0,SSW,11.5,-,N/A,,Clear,210,2014-01-14 17:53:00
12:53 PM,59.0,33.1,38,29.88,10.0,SW,16.1,21.9,N/A,,Scattered Clouds,230,2014-01-14 18:53:00
1:53 PM,57.9,32.0,37,29.88,10.0,West,17.3,24.2,N/A,,Clear,260,2014-01-14 19:53:00
2:41 PM,57.2,28.4,33,29.90,2.0,West,17.3,27.6,N/A,,Overcast,270,2014-01-14 20:41:00
2:48 PM,57.2,30.2,36,29.91,10.0,West,16.1,26.5,N/A,,Overcast,260,2014-01-14 20:48:00
2:53 PM,57.0,30.0,36,29.91,10.0,West,16.1,26.5,N/A,,Overcast,270,2014-01-14 20:53:00
3:53 PM,55.0,28.9,37,29.94,10.0,WNW,12.7,19.6,N/A,,Scattered Clouds,290,2014-01-14 21:53:00
4:53 PM,51.1,30.9,46,29.98,10.0,WNW,16.1,-,N/A,,Partly Cloudy,290,2014-01-14 22:53:00
5:53 PM,48.0,37.9,68,30.01,10.0,West,3.5,-,0.00,Rain,Light Rain,280,2014-01-14 23:53:00
6:53 PM,46.9,37.0,68,30.04,10.0,WNW,3.5,-,0.00,,Overcast,300,2014-01-15 00:53:00
7:53 PM,46.0,37.0,71,30.05,10.0,WNW,4.6,-,N/A,,Overcast,300,2014-01-15 01:53:00
8:53 PM,45.0,36.0,71,30.06,10.0,WNW,4.6,-,N/A,,Partly Cloudy,300,2014-01-15 02:53:00
9:53 PM,43.0,30.9,62,30.08,10.0,NW,8.1,-,N/A,,Clear,320,2014-01-15 03:53:00
10:53 PM,41.0,28.0,60,30.09,10.0,NNW,6.9,-,N/A,,Clear,330,2014-01-15 04:53:00
11:53 PM,39.0,25.0,57,30.09,10.0,NW,6.9,-,N/A,,Clear,310,2014-01-15 05:53:00